• In Deutschland
  • Länderverzeichnis
  • Für 7 Tage
  • Wassertemperatur
  • Satellitenkarten
  • Wetterkarte
  • Widgets
  • user-avatar
    Anmelden

    Stündliche Wetter Brilon

    Heute, 21 Juli, Samstag

    Zeit Temperatur Niederschläge Wind Luftdruck Luftfeuchtigkeit
    00:00 +19°C° 0,1 mm 1 m/S 721 mmHg 70%
    01:00 +19°C° 0 mm 1 m/S 721 mmHg 70%
    02:00 +18°C° 0 mm 1 m/S 720 mmHg 73%
    03:00 +16°C° 0 mm 1 m/S 720 mmHg 76%
    04:00 +16°C° 0 mm 1 m/S 720 mmHg 79%
    05:00 +18°C° 0,1 mm 1 m/S 720 mmHg 77%
    06:00 +19°C° 0,1 mm 1 m/S 720 mmHg 76%
    07:00 +20°C° 0 mm 1 m/S 721 mmHg 70%
    08:00 +21°C° 0 mm 1 m/S 721 mmHg 65%
    09:00 +23°C° 0 mm 1 m/S 721 mmHg 60%
    10:00 +25°C° 0 mm 1 m/S 721 mmHg 54%
    11:00 +26°C° 0,3 mm 1 m/S 721 mmHg 53%
    12:00 +27°C° 0,3 mm 1 m/S 721 mmHg 51%
    13:00 +28°C° 0,3 mm 2 m/S 722 mmHg 49%
    14:00 +27°C° 0,7 mm 2 m/S 721 mmHg 54%
    15:00 +26°C° 0,7 mm 2 m/S 721 mmHg 58%
    16:00 +25°C° 0,7 mm 1 m/S 721 mmHg 63%
    17:00 +24°C° 0,3 mm 1 m/S 721 mmHg 67%
    18:00 +24°C° 0,3 mm 1 m/S 721 mmHg 71%
    19:00 +23°C° 0,3 mm 1 m/S 721 mmHg 75%
    20:00 +22°C° 0 mm 1 m/S 721 mmHg 79%
    21:00 +20°C° 0 mm 1 m/S 721 mmHg 83%
    22:00 +19°C° 0 mm 1 m/S 721 mmHg 86%
    23:00 +18°C° 0,1 mm 1 m/S 721 mmHg 87%

    Morgen, 22 Juli, Sonntag

    Zeit Temperatur Niederschläge Wind Luftdruck Luftfeuchtigkeit
    00:00 +18°C° 0,1 mm 1 m/S 721 mmHg 88%
    01:00 +16°C° 0,1 mm 1 m/S 721 mmHg 89%
    02:00 +16°C° 0 mm 1 m/S 721 mmHg 90%
    03:00 +16°C° 0 mm 1 m/S 721 mmHg 90%
    04:00 +15°C° 0 mm 1 m/S 721 mmHg 91%
    05:00 +16°C° 0 mm 1 m/S 722 mmHg 89%
    06:00 +18°C° 0 mm 1 m/S 722 mmHg 86%
    07:00 +19°C° 0 mm 1 m/S 722 mmHg 84%
    08:00 +19°C° 0,2 mm 2 m/S 722 mmHg 79%
    09:00 +21°C° 0,2 mm 2 m/S 723 mmHg 73%
    10:00 +23°C° 0,2 mm 2 m/S 723 mmHg 67%
    11:00 +24°C° 0,4 mm 2 m/S 723 mmHg 64%
    12:00 +25°C° 0,4 mm 3 m/S 723 mmHg 60%
    13:00 +25°C° 0,4 mm 3 m/S 723 mmHg 56%
    14:00 +25°C° 0,2 mm 3 m/S 723 mmHg 55%
    15:00 +26°C° 0,2 mm 3 m/S 723 mmHg 54%
    16:00 +26°C° 0,2 mm 3 m/S 723 mmHg 52%
    17:00 +25°C° 0 mm 3 m/S 723 mmHg 57%
    18:00 +24°C° 0 mm 3 m/S 723 mmHg 62%
    19:00 +23°C° 0 mm 2 m/S 723 mmHg 66%
    20:00 +20°C° 0 mm 2 m/S 723 mmHg 71%
    21:00 +20°C° 0 mm 1 m/S 723 mmHg 77%
    22:00 +18°C° 0 mm 1 m/S 723 mmHg 82%
    23:00 +16°C° 0 mm 1 m/S 724 mmHg 84%

    übermorgen, 23 Juli, Montag

    Zeit Temperatur Niederschläge Wind Luftdruck Luftfeuchtigkeit
    00:00 +16°C° 0 mm 1 m/S 724 mmHg 87%
    01:00 +15°C° 0 mm 1 m/S 724 mmHg 89%
    02:00 +15°C° 0 mm 1 m/S 724 mmHg 89%
    03:00 +15°C° 0 mm 1 m/S 724 mmHg 90%
    04:00 +14°C° 0 mm 1 m/S 724 mmHg 91%
    05:00 +15°C° 0 mm 0 m/S 724 mmHg 86%
    06:00 +16°C° 0 mm 0 m/S 724 mmHg 82%
    07:00 +17°C° 0 mm 0 m/S 725 mmHg 78%
    08:00 +19°C° 0 mm 0 m/S 725 mmHg 72%
    09:00 +23°C° 0 mm 1 m/S 725 mmHg 65%
    10:00 +24°C° 0 mm 1 m/S 725 mmHg 59%
    11:00 +25°C° 0 mm 1 m/S 725 mmHg 57%
    12:00 +25°C° 0 mm 1 m/S 725 mmHg 55%
    13:00 +25°C° 0 mm 1 m/S 725 mmHg 53%
    14:00 +25°C° 0 mm 1 m/S 725 mmHg 55%
    15:00 +25°C° 0 mm 2 m/S 725 mmHg 56%
    16:00 +25°C° 0 mm 2 m/S 725 mmHg 57%
    17:00 +25°C° 0 mm 1 m/S 725 mmHg 61%
    18:00 +24°C° 0 mm 1 m/S 725 mmHg 66%
    19:00 +24°C° 0 mm 1 m/S 725 mmHg 70%
    20:00 +22°C° 0 mm 1 m/S 725 mmHg 75%
    21:00 +20°C° 0 mm 1 m/S 725 mmHg 80%
    22:00 +19°C° 0 mm 1 m/S 725 mmHg 85%
    23:00 +18°C° 0 mm 1 m/S 725 mmHg 87%

    24 Juli, Dienstag

    Zeit Temperatur Niederschläge Wind Luftdruck Luftfeuchtigkeit
    00:00 +18°C° 0 mm 1 m/S 725 mmHg 88%
    01:00 +18°C° 0 mm 1 m/S 725 mmHg 89%
    02:00 +16°C° 0 mm 1 m/S 725 mmHg 90%
    03:00 +16°C° 0 mm 1 m/S 724 mmHg 91%
    04:00 +16°C° 0 mm 1 m/S 724 mmHg 91%
    05:00 +18°C° 0 mm 1 m/S 724 mmHg 87%
    06:00 +19°C° 0 mm 1 m/S 725 mmHg 82%
    07:00 +21°C° 0 mm 1 m/S 725 mmHg 78%
    08:00 +22°C° 0 mm 1 m/S 725 mmHg 71%
    09:00 +24°C° 0 mm 1 m/S 725 mmHg 64%
    10:00 +26°C° 0 mm 1 m/S 725 mmHg 57%
    11:00 +27°C° 0 mm 1 m/S 725 mmHg 54%
    12:00 +28°C° 0 mm 1 m/S 724 mmHg 51%
    13:00 +29°C° 0 mm 1 m/S 724 mmHg 47%
    14:00 +29°C° 0 mm 1 m/S 724 mmHg 48%
    15:00 +28°C° 0 mm 1 m/S 724 mmHg 49%
    16:00 +28°C° 0 mm 1 m/S 724 mmHg 49%
    17:00 +28°C° 0 mm 1 m/S 723 mmHg 54%
    18:00 +27°C° 0 mm 1 m/S 723 mmHg 59%
    19:00 +26°C° 0 mm 1 m/S 723 mmHg 64%
    20:00 +24°C° 0 mm 1 m/S 723 mmHg 69%
    21:00 +23°C° 0 mm 1 m/S 723 mmHg 73%
    22:00 +21°C° 0 mm 1 m/S 723 mmHg 77%
    23:00 +20°C° 0 mm 1 m/S 723 mmHg 79%

    25 Juli, Mittwoch

    Zeit Temperatur Niederschläge Wind Luftdruck Luftfeuchtigkeit
    00:00 +20°C° 0 mm 1 m/S 723 mmHg 80%
    01:00 +19°C° 0 mm 1 m/S 723 mmHg 82%
    02:00 +19°C° 0 mm 1 m/S 723 mmHg 82%
    03:00 +19°C° 0 mm 1 m/S 723 mmHg 83%
    04:00 +18°C° 0 mm 1 m/S 723 mmHg 84%
    05:00 +20°C° 0 mm 1 m/S 723 mmHg 81%
    06:00 +21°C° 0 mm 1 m/S 724 mmHg 77%
    07:00 +22°C° 0 mm 1 m/S 724 mmHg 74%
    08:00 +24°C° 0 mm 1 m/S 724 mmHg 66%
    09:00 +26°C° 0 mm 1 m/S 724 mmHg 59%
    10:00 +28°C° 0 mm 1 m/S 725 mmHg 52%
    11:00 +28°C° 0 mm 1 m/S 725 mmHg 49%
    12:00 +29°C° 0 mm 2 m/S 724 mmHg 46%
    13:00 +30°C° 0 mm 2 m/S 724 mmHg 43%
    14:00 +30°C° 0 mm 1 m/S 724 mmHg 44%
    15:00 +30°C° 0 mm 1 m/S 724 mmHg 45%
    16:00 +30°C° 0 mm 1 m/S 724 mmHg 46%
    17:00 +29°C° 0 mm 1 m/S 724 mmHg 52%
    18:00 +28°C° 0 mm 1 m/S 724 mmHg 57%
    19:00 +27°C° 0 mm 1 m/S 724 mmHg 63%
    20:00 +25°C° 0 mm 1 m/S 724 mmHg 66%
    21:00 +24°C° 0 mm 1 m/S 724 mmHg 70%
    22:00 +22°C° 0 mm 1 m/S 724 mmHg 74%
    23:00 +22°C° 0 mm 1 m/S 724 mmHg 76%

    26 Juli, Donnerstag

    Zeit Temperatur Niederschläge Wind Luftdruck Luftfeuchtigkeit
    00:00 +21°C° 0 mm 1 m/S 724 mmHg 77%
    01:00 +21°C° 0 mm 1 m/S 724 mmHg 79%
    02:00 +20°C° 0 mm 1 m/S 724 mmHg 80%
    03:00 +20°C° 0 mm 1 m/S 724 mmHg 81%
    04:00 +20°C° 0 mm 1 m/S 724 mmHg 82%
    05:00 +21°C° 0 mm 1 m/S 725 mmHg 79%
    06:00 +22°C° 0 mm 1 m/S 725 mmHg 76%
    07:00 +21°C° 0 mm 0 m/S 725 mmHg 72%
    08:00 +25°C° 0 mm 1 m/S 725 mmHg 64%
    09:00 +27°C° 0 mm 1 m/S 726 mmHg 56%
    10:00 +29°C° 0 mm 1 m/S 726 mmHg 49%
    11:00 +29°C° 0 mm 1 m/S 726 mmHg 46%
    12:00 +30°C° 0 mm 2 m/S 726 mmHg 44%
    13:00 +30°C° 0 mm 2 m/S 726 mmHg 41%
    14:00 +30°C° 0 mm 2 m/S 725 mmHg 42%
    15:00 +30°C° 0 mm 2 m/S 725 mmHg 43%
    16:00 +30°C° 0 mm 2 m/S 725 mmHg 43%
    17:00 +29°C° 0 mm 2 m/S 725 mmHg 49%
    18:00 +28°C° 0 mm 2 m/S 725 mmHg 54%
    19:00 +27°C° 0 mm 1 m/S 725 mmHg 60%
    20:00 +26°C° 0 mm 1 m/S 725 mmHg 63%
    21:00 +24°C° 0 mm 1 m/S 725 mmHg 67%
    22:00 +22°C° 0 mm 1 m/S 725 mmHg 70%
    23:00 +22°C° 0 mm 1 m/S 725 mmHg 71%
    Mehr zeigen